Weather History for Wautoma, WI

Change the Weather History Date:

Thursday, June 13, 2013

  Actual Average (KPCZ) Record (KPCZ)
Temperature  
Mean Temperature 66 °F -  
Max Temperature 77 °F 78 °F 96 °F (1956)
Min Temperature 59 °F 54 °F 39 °F (1969)
Cooling Degree Days 2    
Growing Degree Days 16 (Base 50)    
Moisture  
Dew Point 53 °F    
Average Humidity 62    
Maximum Humidity 83    
Minimum Humidity 42    
Precipitation  
Precipitation 0.00 in - - ()
Sea Level Pressure  
Sea Level Pressure 29.96 in    
Wind  
Wind Speed 7 mph (North)    
Max Wind Speed 13 mph    
Max Gust Speed 16 mph    
Visibility 10 miles    
Events      
Averages and records for this station are not official NWS values.
T = Trace of Precipitation, MM = Missing Value Source: NWS Daily Summary

Daily Weather History Graph

Daily Weather History Graph

Search for Another Location

Airport:

Trip Planner

Search our weather history database for the weather conditions in past years. The results will help you decide how hot, cold, wet, or windy it might be!

Date:

Astronomy

Jun. 13, 2013 Rise Set
Actual Time 5:13 AM CDT 8:41 PM CDT
Civil Twilight 4:37 AM CDT 9:17 PM CDT
Nautical Twilight 3:49 AM CDT 10:05 PM CDT
Astronomical Twilight 2:49 AM CDT 11:05 PM CDT
Moon 9:58 AM CDT (6/13) 11:38 PM CDT (6/13)
Length of Visible Light 16h 40m
Length of Day
15h 27m
Waxing Crescent, 22% of the Moon is Illuminated
Jun 13
Waxing Crescent
Jun 16
First Quarter
Jun 23
Full
Jun 29
Last Quarter
Jul 8
New

Hourly Weather History & Observations

Time (CDT) Temp. Dew Point Humidity Pressure Visibility Wind Dir Wind Speed Gust Speed Precip Events Conditions
12:56 AM 59.9 °F 54.9 °F 83% 29.79 in 10.0 mi North 6.9 mph - N/A   Partly Cloudy
1:56 AM 59.9 °F 54.9 °F 83% 29.82 in 10.0 mi North 6.9 mph - N/A   Clear
2:56 AM 61.0 °F 54.0 °F 78% 29.82 in 10.0 mi North 4.6 mph - N/A   Clear
3:56 AM 59.0 °F 52.9 °F 80% 29.84 in 10.0 mi NW 4.6 mph - N/A   Clear
4:56 AM 59.9 °F 52.9 °F 78% 29.86 in 10.0 mi North 5.8 mph - N/A   Clear
5:56 AM 59.9 °F 54.0 °F 81% 29.90 in 10.0 mi NNW 4.6 mph - N/A   Partly Cloudy
6:56 AM 63.9 °F 54.0 °F 70% 29.91 in 10.0 mi North 5.8 mph - N/A   Mostly Cloudy
7:56 AM 64.9 °F 54.0 °F 68% 29.94 in 10.0 mi North 9.2 mph - N/A   Clear
8:56 AM 66.9 °F 54.0 °F 63% 29.95 in 10.0 mi NNE 11.5 mph - N/A   Clear
9:56 AM 68.9 °F 54.9 °F 61% 29.96 in 10.0 mi North 6.9 mph - N/A   Clear
10:56 AM 72.0 °F 54.0 °F 53% 29.96 in 10.0 mi North 10.4 mph 16.1 mph N/A   Clear
11:56 AM 72.9 °F 54.0 °F 51% 29.98 in 10.0 mi North 12.7 mph - N/A   Scattered Clouds
12:56 PM 73.9 °F 52.0 °F 46% 29.99 in 10.0 mi NNW 10.4 mph - N/A   Scattered Clouds
1:56 PM 73.9 °F 52.0 °F 46% 30.01 in 10.0 mi North 9.2 mph - N/A   Scattered Clouds
2:56 PM 74.8 °F 52.0 °F 45% 30.00 in 10.0 mi North 10.4 mph - N/A   Mostly Cloudy
3:56 PM 74.8 °F 50.0 °F 42% 30.01 in 10.0 mi North 10.4 mph - N/A   Scattered Clouds
4:56 PM 73.9 °F 50.9 °F 44% 30.01 in 10.0 mi North 9.2 mph - N/A   Mostly Cloudy
5:56 PM 73.9 °F 50.9 °F 44% 30.00 in 10.0 mi North 8.1 mph - N/A   Partly Cloudy
6:56 PM 73.9 °F 50.0 °F 43% 30.01 in 10.0 mi NNE 9.2 mph - N/A   Partly Cloudy
7:56 PM 72.0 °F 50.0 °F 46% 30.02 in 10.0 mi NNE 4.6 mph - N/A   Clear
8:56 PM 63.9 °F 52.9 °F 67% 30.04 in 10.0 mi Calm Calm - N/A   Clear
9:56 PM 64.9 °F 52.0 °F 63% 30.07 in 10.0 mi NE 5.8 mph - N/A   Partly Cloudy
10:56 PM 61.9 °F 52.0 °F 70% 30.08 in 10.0 mi NE 6.9 mph - N/A   Clear
11:56 PM 59.9 °F 52.0 °F 75% 30.09 in 10.0 mi NE 6.9 mph - N/A   Clear